Sheboygan, WI

8:25 AM CDT on July 21, 2017 (GMT -0500)
Sheboygan County Memorial

Weather History for KSBM - July, 2013

Change the Weather History Date:

Saturday, July 13, 2013

  Actual Average Record
Temperature  
Mean Temperature 68 °F -  
Max Temperature 81 °F 81 °F 95 °F (1954)
Min Temperature 54 °F 62 °F 51 °F (2001)
Cooling Degree Days 2    
Growing Degree Days 18 (Base 50)    
Moisture  
Dew Point 58 °F    
Average Humidity 71    
Maximum Humidity 100    
Minimum Humidity 43    
Precipitation  
Precipitation 0.00 in - - ()
Sea Level Pressure  
Sea Level Pressure 30.16 in    
Wind  
Wind Speed 3 mph (South)    
Max Wind Speed 13 mph    
Max Gust Speed 21 mph    
Visibility 10 miles    
Events      
Averages and records for this station are not official NWS values.
T = Trace of Precipitation, MM = Missing Value Source: NWS Daily Summary

Daily Weather History Graph

Daily Weather History Graph

Search for Another Location

Airport or City:

Trip Planner

Search our weather history database for the weather conditions in past years. The results will help you decide how hot, cold, wet, or windy it might be!

Date:

Astronomy

Jul. 13, 2013 Rise Set
Actual Time 5:21 AM CDT 8:32 PM CDT
Civil Twilight 4:46 AM CDT 9:06 PM CDT
Nautical Twilight 4:01 AM CDT 9:51 PM CDT
Astronomical Twilight 3:07 AM CDT 10:46 PM CDT
Moon 10:49 AM CDT (7/13) 10:59 PM CDT (7/13)
Length of Visible Light 16h 20m
Length of Day
15h 10m
Waxing Crescent, 26% of the Moon is Illuminated
Jul 13
Waxing Crescent
Jul 15
First Quarter
Jul 22
Full
Jul 29
Last Quarter
Aug 6
New

Hourly Weather History & Observations

Time (CDT) Temp. Heat Index Dew Point Humidity Pressure Visibility Wind Dir Wind Speed Gust Speed Precip Events Conditions
12:53 AM 60.1 °F - 59.0 °F 96% 30.11 in 10.0 mi Calm Calm - N/A   Clear
1:53 AM 55.9 °F - 55.9 °F 100% 30.12 in 7.0 mi Calm Calm - N/A   Clear
2:53 AM 55.9 °F - 55.0 °F 97% 30.14 in 8.0 mi Calm Calm - N/A   Clear
3:53 AM 54.0 °F - 54.0 °F 100% 30.13 in 10.0 mi Calm Calm - N/A   Clear
4:53 AM 55.0 °F - 54.0 °F 96% 30.14 in 10.0 mi West 3.5 mph - N/A   Clear
5:53 AM 55.9 °F - 55.0 °F 97% 30.13 in 10.0 mi Calm Calm - N/A   Clear
6:53 AM 60.1 °F - 57.0 °F 90% 30.17 in 10.0 mi West 3.5 mph - N/A   Clear
7:53 AM 68.0 °F - 62.1 °F 81% 30.16 in 10.0 mi South 8.1 mph - N/A   Clear
8:53 AM 75.0 °F - 62.1 °F 64% 30.17 in 10.0 mi SSW 8.1 mph - N/A   Clear
9:53 AM 77.0 °F - 61.0 °F 58% 30.17 in 10.0 mi SSW 10.4 mph - N/A   Clear
10:53 AM 80.1 °F 80.7 °F 59.0 °F 48% 30.17 in 10.0 mi WSW 9.2 mph - N/A   Clear
11:53 AM 81.0 °F 81.1 °F 57.9 °F 45% 30.18 in 10.0 mi Calm Calm - N/A   Clear
12:53 PM 80.1 °F 81.5 °F 63.0 °F 56% 30.17 in 10.0 mi SE 9.2 mph 16.1 mph N/A   Clear
1:53 PM 80.1 °F 81.1 °F 61.0 °F 52% 30.17 in 10.0 mi SE 10.4 mph 20.7 mph N/A   Clear
2:53 PM 80.1 °F 80.7 °F 59.0 °F 48% 30.17 in 10.0 mi SSE 12.7 mph 19.6 mph N/A   Clear
3:53 PM 79.0 °F - 57.9 °F 48% 30.17 in 10.0 mi SSE 12.7 mph - N/A   Clear
4:53 PM 79.0 °F - 57.0 °F 47% 30.16 in 10.0 mi South 9.2 mph - N/A   Clear
5:53 PM 79.0 °F - 55.0 °F 44% 30.16 in 10.0 mi SSE 8.1 mph - N/A   Clear
6:53 PM 78.1 °F - 54.0 °F 43% 30.16 in 10.0 mi South 5.8 mph - N/A   Clear
7:53 PM 75.9 °F - 55.0 °F 48% 30.14 in 10.0 mi Calm Calm - N/A   Clear
8:53 PM 64.9 °F - 59.0 °F 81% 30.16 in 10.0 mi Calm Calm - N/A   Clear
9:53 PM 62.1 °F - 57.0 °F 84% 30.17 in 10.0 mi Calm Calm - N/A   Clear
10:53 PM 61.0 °F - 57.9 °F 90% 30.17 in 10.0 mi Calm Calm - N/A   Clear
11:53 PM 61.0 °F - 59.0 °F 93% 30.18 in 10.0 mi Calm Calm - N/A   Clear